Location: *
(46.3500°N, 10.9000°E)
Time: 10:52:09
(UTC+00:00)

X-37B - Visible Passes

Search period start: 09 August 2022 00:00
Search period end: 19 August 2022 00:00
Orbit: 328 x 343 km, 45.0° (Epoch: 27 July)

Date Brightness Start Highest point End Pass type
(mag) Time Alt. Az. Time Alt. Az. Time Alt. Az.
09 Aug 0.7 02:27:35 41° SSW 02:28:05 46° SSE 02:30:53 10° E visible
10 Aug 0.3 02:47:02 25° WSW 02:48:28 65° S 02:51:20 10° E visible
11 Aug 2.7 01:35:18 19° E 01:35:18 19° E 01:36:20 10° E visible
11 Aug 0.3 03:06:31 14° W 03:08:53 67° S 03:11:46 10° E visible
12 Aug 1.5 01:54:51 36° ESE 01:54:51 36° ESE 01:56:47 10° E visible
12 Aug 0.6 03:26:27 10° W 03:29:17 50° SSW 03:32:07 10° ESE visible
13 Aug 0.4 02:14:32 63° SSE 02:14:32 63° SSE 02:17:12 10° E visible
14 Aug 0.5 02:34:22 47° SW 02:34:43 51° SSW 02:37:32 10° ESE visible
15 Aug 1.2 02:54:27 28° SW 02:55:03 31° SSW 02:57:39 10° SE visible
16 Aug 2.1 03:14:50 16° SW 03:15:16 16° SSW 03:17:12 10° SSE visible
